Monroe, WI

6:20 PM CDT on April 26, 2018 (GMT -0500)
Monroe Municipal

Weather History for KEFT - August, 2013

Change the Weather History Date:

Thursday, August 29, 2013

  Actual Average Record
Temperature  
Mean Temperature 76 °F -  
Max Temperature 87 °F 86 °F 90 °F (2010)
Min Temperature 65 °F 58 °F 53 °F (2001)
Cooling Degree Days 11    
Growing Degree Days 26 (Base 50)    
Moisture  
Dew Point 68 °F    
Average Humidity 81    
Maximum Humidity 100    
Minimum Humidity 44    
Precipitation  
Precipitation 0.00 in - - ()
Sea Level Pressure  
Sea Level Pressure 30.05 in    
Wind  
Wind Speed 5 mph (SE)    
Max Wind Speed 12 mph    
Max Gust Speed 16 mph    
Visibility 7 miles    
Events Fog    
Averages and records for this station are not official NWS values.
T = Trace of Precipitation, MM = Missing Value Source: NWS Daily Summary

Daily Weather History Graph

Daily Weather History Graph

Search for Another Location

Airport or City:

Astronomy

Aug. 29, 2013 Rise Set
Actual Time 6:20 AM CDT 7:37 PM CDT
Civil Twilight 5:51 AM CDT 8:06 PM CDT
Nautical Twilight 5:15 AM CDT 8:41 PM CDT
Astronomical Twilight 4:38 AM CDT 9:18 PM CDT
Moon 12:07 AM CDT (8/29) 3:10 PM CDT (8/29)
Length of Visible Light 14h 15m
Length of Day
13h 16m
Last Quarter, 38% of the Moon is Illuminated
Aug 29
Last Quarter
Sep 5
New
Sep 12
First Quarter
Sep 19
Full
Sep 26
Last Quarter

Hourly Weather History & Observations

Time (CDT) Temp. Heat Index Dew Point Humidity Pressure Visibility Wind Dir Wind Speed Gust Speed Precip Events Conditions
12:15 AM - - - N/A% 30.06 in 10.0 mi East 3.5 mph - N/A   Clear
12:35 AM - - - N/A% 30.07 in 10.0 mi ENE 5.8 mph - N/A   Clear
12:55 AM - - - N/A% 30.07 in 10.0 mi ENE 4.6 mph - N/A   Clear
1:15 AM - - - N/A% 30.06 in 7.0 mi East 4.6 mph - N/A   Clear
1:35 AM - - - N/A% 30.06 in 10.0 mi East 4.6 mph - N/A   Clear
1:55 AM - - - N/A% 30.06 in 10.0 mi East 5.8 mph - N/A   Clear
2:15 AM - - - N/A% 30.06 in 7.0 mi East 4.6 mph - N/A   Clear
2:35 AM 68.9 °F - 68.9 °F 100% 30.06 in 7.0 mi East 3.5 mph - N/A   Clear
2:55 AM 68.9 °F - 68.9 °F 100% 30.06 in 7.0 mi East 4.6 mph - N/A   Clear
3:15 AM 68.7 °F - 68.7 °F 100% 30.07 in 7.0 mi ESE 4.6 mph - N/A   Clear
3:35 AM 68.4 °F - 68.4 °F 100% 30.06 in 5.0 mi East 4.6 mph - N/A   Clear
3:55 AM 68.0 °F - 68.0 °F 100% 30.06 in 4.0 mi East 3.5 mph - N/A   Clear
4:15 AM 67.6 °F - 67.6 °F 100% 30.06 in 1.8 mi East 3.5 mph - N/A   Mist
4:35 AM 67.8 °F - 67.8 °F 100% 30.06 in 4.0 mi Calm Calm - N/A   Clear
4:55 AM 67.5 °F - 67.5 °F 100% 30.06 in 2.5 mi ESE 3.5 mph - N/A   Clear
5:15 AM 67.3 °F - 67.3 °F 100% 30.07 in 0.8 mi ESE 3.5 mph - N/A   Mostly Cloudy
5:35 AM 66.7 °F - 66.7 °F 100% 30.07 in 0.5 mi East 3.5 mph - N/A Fog Fog
5:55 AM 66.2 °F - 66.2 °F 100% 30.07 in 0.2 mi Calm Calm - N/A Fog Fog
6:15 AM 65.7 °F - 65.7 °F 100% 30.07 in 0.2 mi Calm Calm - N/A Fog Fog
6:35 AM 65.5 °F - 65.5 °F 100% 30.08 in 0.2 mi Calm Calm - N/A Fog Fog
6:55 AM 65.3 °F - 65.3 °F 100% 30.08 in 0.2 mi East 3.5 mph - N/A Fog Fog
7:15 AM 65.3 °F - 65.3 °F 100% 30.09 in 0.2 mi Calm Calm - N/A Fog Fog
7:35 AM 65.5 °F - 65.5 °F 100% 30.10 in 0.2 mi Calm Calm - N/A Fog Fog
7:55 AM 66.2 °F - 66.2 °F 100% 30.10 in 0.2 mi Calm Calm - N/A Fog Fog
8:15 AM 67.3 °F - 67.3 °F 100% 30.10 in 0.8 mi SSE 3.5 mph - N/A   Overcast
8:35 AM 67.3 °F - 67.3 °F 100% 30.10 in 1.0 mi SSE 3.5 mph - N/A   Overcast
8:55 AM 67.8 °F - 67.8 °F 100% 30.11 in 0.5 mi SE 5.8 mph - N/A Fog Fog
9:15 AM 68.7 °F - 68.7 °F 100% 30.10 in 0.5 mi SE 5.8 mph - N/A Fog Fog
9:35 AM 69.1 °F - 69.1 °F 100% 30.11 in 1.0 mi SSE 6.9 mph - N/A   Overcast
9:55 AM 70.0 °F - 70.0 °F 100% 30.11 in 5.0 mi South 5.8 mph - N/A   Overcast
10:15 AM 70.7 °F - 70.7 °F 100% 30.11 in 10.0 mi SSE 8.1 mph - N/A   Overcast
10:35 AM 74.3 °F - 73.9 °F 99% 30.11 in 10.0 mi South 5.8 mph - N/A   Mostly Cloudy
10:55 AM 76.1 °F - 74.7 °F 95% 30.11 in 10.0 mi SE 6.9 mph - N/A   Scattered Clouds
11:15 AM 77.5 °F - 74.8 °F 91% 30.11 in 10.0 mi SSE 8.1 mph - N/A   Scattered Clouds
11:35 AM 78.6 °F - 72.0 °F 80% 30.10 in 10.0 mi SSE 6.9 mph - N/A   Scattered Clouds
12:15 PM 80.6 °F 83.6 °F 69.1 °F 68% 30.10 in 10.0 mi ESE 5.8 mph - N/A   Clear
12:35 PM 81.9 °F 85.0 °F 68.5 °F 64% 30.10 in 10.0 mi SE 6.9 mph - N/A   Clear
12:55 PM 83.3 °F 86.4 °F 68.2 °F 60% 30.08 in 10.0 mi SSE 5.8 mph - N/A   Clear
1:15 PM 83.8 °F 86.5 °F 66.9 °F 57% 30.08 in 10.0 mi SSE 8.1 mph - N/A   Clear
1:35 PM 84.6 °F 86.8 °F 66.2 °F 54% 30.07 in 10.0 mi SSE 9.2 mph - N/A   Clear
1:55 PM 84.7 °F 86.8 °F 66.0 °F 53% 30.07 in 10.0 mi SSE 8.1 mph - N/A   Clear
2:15 PM 86.0 °F 87.3 °F 64.2 °F 48% 30.06 in 10.0 mi SSE 8.1 mph - N/A   Clear
2:35 PM 86.0 °F 88.2 °F 66.0 °F 51% 30.05 in 10.0 mi SE 9.2 mph - N/A   Clear
2:55 PM 86.2 °F 86.8 °F 62.6 °F 45% 30.05 in 10.0 mi South 9.2 mph - N/A   Clear
3:15 PM 86.9 °F 88.3 °F 64.4 °F 47% 30.04 in 10.0 mi SE 6.9 mph - N/A   Clear
3:35 PM 87.3 °F 88.6 °F 64.2 °F 46% 30.03 in 10.0 mi South 8.1 mph - N/A   Clear
3:55 PM 86.9 °F 88.9 °F 65.5 °F 49% 30.03 in 10.0 mi SSE 9.2 mph - N/A   Clear
4:15 PM 86.9 °F 88.6 °F 65.1 °F 48% 30.03 in 10.0 mi South 11.5 mph 16.1 mph N/A   Clear
4:35 PM 86.9 °F 87.5 °F 62.8 °F 44% 30.03 in 10.0 mi South 6.9 mph - N/A   Clear
4:55 PM 86.5 °F 87.6 °F 63.5 °F 46% 30.03 in 10.0 mi SSE 6.9 mph - N/A   Clear
5:15 PM 86.4 °F 87.6 °F 63.7 °F 47% 30.02 in 10.0 mi South 6.9 mph - N/A   Clear
5:35 PM 86.4 °F 87.0 °F 62.8 °F 45% 30.01 in 10.0 mi South 6.9 mph - N/A   Clear
5:55 PM 85.3 °F 86.6 °F 64.0 °F 49% 30.01 in 10.0 mi SSE 6.9 mph - N/A   Clear
6:15 PM 84.7 °F 86.6 °F 65.5 °F 52% 30.01 in 10.0 mi SSE 6.9 mph - N/A   Clear
6:35 PM 83.7 °F 86.0 °F 66.4 °F 56% 30.00 in 10.0 mi SSE 8.1 mph - N/A   Clear
6:55 PM 82.4 °F 85.0 °F 67.1 °F 60% 30.00 in 10.0 mi SSE 9.2 mph - N/A   Clear
7:15 PM 80.6 °F 83.2 °F 67.6 °F 65% 30.00 in 10.0 mi SSE 8.1 mph - N/A   Clear
7:35 PM 79.2 °F - 67.8 °F 68% 30.00 in 10.0 mi SSE 6.9 mph - N/A   Clear
7:55 PM 77.9 °F - 68.0 °F 71% 30.00 in 10.0 mi SSE 6.9 mph - N/A   Clear
8:15 PM 77.0 °F - 68.5 °F 75% 30.00 in 10.0 mi SSE 6.9 mph - N/A   Clear
8:35 PM 76.3 °F - 72.9 °F 89% 30.00 in 10.0 mi SSE 6.9 mph - N/A   Clear
8:55 PM 76.5 °F - 73.4 °F 90% 30.00 in 10.0 mi SSE 6.9 mph - N/A   Clear
9:15 PM 76.1 °F - 74.7 °F 95% 30.00 in 10.0 mi South 9.2 mph - N/A   Clear
9:35 PM 76.1 °F - 75.4 °F 98% 30.00 in 10.0 mi South 9.2 mph - N/A   Clear
9:55 PM 75.2 °F - 75.2 °F 100% 30.00 in 10.0 mi South 9.2 mph - N/A   Clear
10:15 PM 74.8 °F - 74.8 °F 100% 30.00 in 10.0 mi South 8.1 mph - N/A   Clear
10:35 PM 74.8 °F - 74.8 °F 100% 30.00 in 10.0 mi SSW 8.1 mph - N/A   Clear
10:55 PM 74.7 °F - 74.7 °F 100% 30.00 in 10.0 mi South 8.1 mph - N/A   Clear
11:15 PM 74.3 °F - 74.3 °F 100% 30.00 in 10.0 mi South 8.1 mph - N/A   Clear
11:35 PM 73.8 °F - 73.8 °F 100% 29.99 in 10.0 mi South 8.1 mph - N/A   Clear
11:55 PM 73.8 °F - 73.8 °F 100% 29.99 in 10.0 mi South 9.2 mph - N/A   Clear